Вернуться в каталог

COSMOS 2381

GLONASS

АктивенНавигацияMEO
NORAD 26988·PAYLOAD·🇷🇺 Russia

Запущен Dec 1, 2001 с Baikonur Cosmodrome

Loading…

Ближайшие Пролёты (ближайшие 24 часа)

TLE

УстаревающийSource: Space-Track

Эпоха: Aug 29, 2026, 00:27 UTC

1 26988U 01053B   26241.01876500  .00000009  00000-0  00000+0 0  9992
2 26988  64.1401  54.8949 0045589 227.9982 102.6568  2.13103786192573

Отслеживайте COSMOS 2381 в реальном времени с AllMySat

Download on the App Store